This demonstration page uses our WeatherBlox Daily Observations layout. Learn more.

Left ArrowRight Arrow

40.97296, -117.73568

Hourly Observations for August 25, 2016

Temp ( °F °C ) Dew Point ( °F °C ) Humidity (%) Winds ( mph kmh ) Pressure ( in mb ) Visibility ( mi km ) Precip ( " mm )
12:56 am 00:56 Clear 64 17.8 24 -4.4 22 22 NE 14 22 29.98 1015 10 16 0.00 0.00
1:56 am 01:56 Clear 63 17.2 26 -3.3 25 25 NE 15 24 29.98 1015 10 16 0.00 0.00
2:56 am 02:56 Clear 57 13.9 26 -3.3 30 30 NNW 5 7 29.99 1016 10 16 0.00 0.00
3:56 am 03:56 Clear 61 16.1 26 -3.3 26 26 NNE 12 19 29.97 1015 10 16 0.00 0.00
4:56 am 04:56 Clear 58 14.4 26 -3.3 29 29 N 5 7 29.99 1016 10 16 0.00 0.00
5:56 am 05:56 Clear 50 10 26 -3.3 39 39 N 6 9 30.01 1016 10 16 0.00 0.00
6:56 am 06:56 Sunny 53 11.7 26 -3.3 35 35 N 5 7 30.02 1017 10 16 0.00 0.00
7:56 am 07:56 Sunny 64 17.8 26 -3.3 24 24 NNE 9 15 30.03 1017 10 16 0.00 0.00
8:56 am 08:56 Sunny 68 20 25 -3.9 20 20 NNE 14 22 30.03 1017 10 16 0.00 0.00
9:56 am 09:56 Sunny 72 22.2 26 -3.3 18 18 NNE 14 22 30.02 1017 10 16 0.00 0.00
10:56 am 10:56 Sunny 76 24.4 25 -3.9 15 15 NNE 15 24 30.00 1016 10 16 0.00 0.00
11:56 am 11:56 Sunny 78 25.6 26 -3.3 15 15 VRB 5 7 29.98 1015 10 16 0.00 0.00
12:56 pm 12:56 Sunny 81 27.2 25 -3.9 13 13 N 13 20 29.95 1014 10 16 0.00 0.00
1:56 pm 13:56 Sunny 82 27.8 22 -5.6 11 11 VRB 7 11 29.93 1014 10 16 0.00 0.00
2:56 pm 14:56 Sunny 82 27.8 22 -5.6 11 11 NW 6 9 29.92 1013 10 16 0.00 0.00
3:56 pm 15:56 Sunny 83 28.3 16 -8.9 8 8 VRB 6 9 29.90 1012 10 16 0.00 0.00
4:56 pm 16:56 Sunny 83 28.3 18 -7.8 9 9 NNW 10 17 29.89 1012 10 16 0.00 0.00
5:56 pm 17:56 Sunny 82 27.8 14 -10 8 8 NNW 8 13 29.90 1013 10 16 0.00 0.00
6:56 pm 18:56 Sunny 79 26.1 18 -7.8 10 10 NNW 9 15 29.90 1013 10 16 0.00 0.00
7:56 pm 19:56 Clear 69 20.6 18 -7.8 14 14 NNW 5 7 29.91 1013 10 16 0.00 0.00
8:56 pm 20:56 Clear 56 13.3 15 -9.4 20 20 S 5 7 29.94 1014 10 16 0.00 0.00
9:56 pm 21:56 Clear 53 11.7 17 -8.3 24 24 Calm 29.93 1014 10 16 0.00 0.00
10:56 pm 22:56 Clear 55 12.8 18 -7.8 23 23 NE 6 9 29.92 1013 10 16 0.00 0.00
11:56 pm 23:56 Clear 47 8.3 20 -6.7 34 34 SE 9 15 29.94 1014 10 16 0.00 0.00

Powered by AerisWeather